Date String (YYYY-MM-DD hh:mm:ss) UTC,Instrument flags,Ambient pressure (hPa),Sample flow (lpm),Bypass flow (lpm),Sample temperature (°C),Ambient temperature (°C),ASC tube jacket temperature (°C),LED temperature (°C),Box temperature (°C),Sample RH (%),Span deviation,Mass concentration (μg/m³),Mass concentration (μg/m³),Mass concentration (μg/m³)
DateTimeUTC,F1_M11,P_M11,Q1_M11,Q2_M11,T1_M11,T2_M11,T3_M11,T4_M11,T5_M11,U1_M11,ZSPAN_M11,X0_M11,X2_M11,X1_M11
2022-09-12 22:00:00,,0826.9,5.01,0.00,29.8,27.7,00.0,38.3,31.7,09.9,0001.2,0017.25,0008.84,0008.36
2022-09-12 22:01:00,,0826.8,5.00,0.00,29.7,26.5,00.0,38.3,31.5,10.3,0000.9,0016.89,0008.84,0008.38
2022-09-12 22:02:00,,0826.8,4.99,0.00,29.7,26.5,00.0,38.2,31.5,10.4,0000.6,0016.35,0008.85,0008.38
2022-09-12 22:03:00,,0826.8,5.00,0.00,29.6,26.8,00.0,38.2,31.4,09.8,-000.2,0014.91,0008.89,0008.38
2022-09-12 22:04:00,,0826.9,5.01,0.00,29.6,27.1,00.0,38.2,31.2,09.6,-000.5,0014.46,0008.88,0008.37
2022-09-12 22:05:00,,0826.8,4.99,0.00,29.6,27.4,00.0,38.2,31.3,09.6,-000.1,0014.90,0008.89,0008.38
2022-09-12 22:06:00,,0827.0,5.01,0.00,29.6,27.7,00.0,38.2,31.3,09.7,-000.4,0014.90,0008.92,0008.38
2022-09-12 22:07:00,,0827.0,5.00,0.00,29.6,28.0,00.0,38.2,31.4,09.7,-000.4,0014.51,0008.94,0008.39
2022-09-12 22:08:00,,0827.0,4.99,0.00,29.6,28.2,00.0,38.2,31.5,09.2,-000.5,0014.25,0008.89,0008.37
2022-09-12 22:09:00,,0826.9,4.99,0.00,29.7,28.4,00.0,38.3,31.6,09.3,-000.3,0014.26,0008.88,0008.36
2022-09-12 22:10:00,,0827.0,5.01,0.00,29.7,28.6,00.0,38.3,31.6,09.8,0000.1,0014.39,0008.87,0008.34
2022-09-12 22:11:00,,0826.8,5.00,0.00,29.8,28.0,00.0,38.3,31.7,09.5,0000.4,0015.37,0008.89,0008.34
2022-09-12 22:12:00,,0826.8,5.01,0.00,29.7,26.7,00.0,38.3,31.5,10.1,0000.3,0015.78,0008.87,0008.32
2022-09-12 22:13:00,,0826.9,4.99,0.00,29.7,26.5,00.0,38.2,31.5,09.8,0000.3,0015.90,0008.88,0008.32
2022-09-12 22:14:00,,0826.9,5.00,0.00,29.6,26.7,00.0,38.2,31.4,09.9,0001.2,0015.56,0008.86,0008.32
2022-09-12 22:15:00,,0826.8,5.00,0.00,29.6,27.0,00.0,38.2,31.2,10.0,0001.9,0015.68,0008.87,0008.31
2022-09-12 22:16:00,,0826.8,4.99,0.00,29.5,27.3,00.0,38.2,31.3,09.4,0002.4,0015.49,0008.83,0008.28
2022-09-12 22:17:00,,0826.8,5.00,0.00,29.5,27.6,00.0,38.2,31.3,08.7,0002.8,0015.13,0008.81,0008.29
2022-09-12 22:18:00,,0826.8,5.00,0.00,29.6,27.9,00.0,38.2,31.4,08.9,0002.7,0015.34,0008.80,0008.28
2022-09-12 22:19:00,,0826.8,5.01,0.00,29.6,28.1,00.0,38.2,31.4,09.3,0002.2,0015.75,0008.80,0008.28
2022-09-12 22:20:00,,0826.8,4.98,0.00,29.7,28.3,00.0,38.2,31.5,10.0,0001.9,0015.69,0008.81,0008.28
2022-09-12 22:21:00,,0827.0,5.01,0.00,29.7,28.5,00.0,38.3,31.6,09.9,0002.1,0015.76,0008.83,0008.30
2022-09-12 22:22:00,,0826.8,5.01,0.00,29.7,28.6,00.0,38.3,31.7,09.9,0002.3,0015.39,0008.88,0008.30
2022-09-12 22:23:00,,0826.8,4.99,0.00,29.8,27.8,00.0,38.3,31.7,08.8,0002.3,0014.98,0008.93,0008.33
2022-09-12 22:24:00,,0826.8,5.00,0.00,29.7,26.7,00.0,38.3,31.6,09.2,0002.4,0014.48,0008.92,0008.36
2022-09-12 22:25:00,,0826.9,5.00,0.00,29.7,26.7,00.0,38.2,31.5,09.2,0002.0,0014.40,0008.91,0008.36
2022-09-12 22:26:00,,0826.8,5.00,0.00,29.6,26.9,00.0,38.2,31.4,09.2,0001.7,0014.58,0008.93,0008.40
2022-09-12 22:27:00,,0826.8,4.99,0.00,29.6,27.2,00.0,38.2,31.3,09.6,0001.0,0014.36,0008.98,0008.45
2022-09-12 22:28:00,,0826.8,5.00,0.00,29.6,27.5,00.0,38.2,31.3,09.7,0001.4,0014.31,0008.99,0008.49
2022-09-12 22:29:00,,0826.8,5.00,0.00,29.6,27.8,00.0,38.2,31.4,09.8,0001.9,0013.75,0009.00,0008.51
2022-09-12 22:30:00,,0826.8,5.01,0.00,29.6,28.0,00.0,38.2,31.5,09.5,0002.6,0013.99,0009.05,0008.54
2022-09-12 22:31:00,,0826.8,4.99,0.00,29.7,28.2,00.0,38.3,31.5,09.4,0002.8,0014.53,0009.09,0008.58
2022-09-12 22:32:00,,0826.8,5.00,0.00,29.7,28.4,00.0,38.3,31.6,09.2,0002.5,0014.34,0009.10,0008.61
2022-09-12 22:33:00,,0826.7,5.00,0.00,29.8,28.3,00.0,38.3,31.7,09.5,0002.3,0013.95,0009.09,0008.64
2022-09-12 22:34:00,,0826.8,5.01,0.00,29.7,27.1,00.0,38.3,31.6,10.0,0002.5,0013.75,0009.08,0008.66
2022-09-12 22:35:00,,0826.7,4.99,0.00,29.7,26.4,00.0,38.2,31.5,09.8,0002.5,0013.76,0009.09,0008.66
2022-09-12 22:36:00,,0826.8,5.00,0.00,29.7,26.6,00.0,38.2,31.5,09.6,0002.2,0013.80,0009.13,0008.71
2022-09-12 22:37:00,,0826.7,5.01,0.00,29.6,26.9,00.0,38.2,31.3,09.5,0002.2,0013.60,0009.18,0008.73
2022-09-12 22:38:00,,0826.7,5.01,0.00,29.6,27.2,00.0,38.2,31.2,09.3,0002.3,0014.18,0009.21,0008.74
2022-09-12 22:39:00,,0826.7,5.00,0.00,29.6,27.5,00.0,38.2,31.3,09.3,0002.2,0015.06,0009.25,0008.76
2022-09-12 22:40:00,,0826.7,5.00,0.00,29.6,27.8,00.0,38.2,31.4,09.6,0001.7,0015.00,0009.30,0008.78
2022-09-12 22:41:00,,0826.7,5.01,0.00,29.6,28.0,00.0,38.2,31.5,09.4,0001.9,0014.38,0009.30,0008.80
2022-09-12 22:42:00,,0826.7,5.01,0.00,29.7,28.3,00.0,38.2,31.5,09.3,0002.0,0013.91,0009.31,0008.80
2022-09-12 22:43:00,,0826.7,4.99,0.00,29.7,28.4,00.0,38.3,31.6,09.8,0002.3,0013.96,0009.30,0008.80
2022-09-12 22:44:00,,0826.7,5.01,0.00,29.7,28.6,00.0,38.3,31.7,10.3,0002.7,0013.93,0009.27,0008.78
2022-09-12 22:45:00,,0826.7,5.00,0.00,29.8,28.2,00.0,38.3,31.7,09.2,0002.2,0014.10,0009.28,0008.77
2022-09-12 22:46:00,,0826.7,5.00,0.00,29.8,26.9,00.0,38.3,31.6,09.2,0002.0,0014.18,0009.30,0008.79
2022-09-12 22:47:00,,0826.7,4.99,0.00,29.7,26.5,00.0,38.3,31.5,09.1,0002.3,0014.16,0009.27,0008.78
2022-09-12 22:48:00,,0826.7,5.00,0.00,29.7,26.7,00.0,38.2,31.4,08.7,0002.8,0013.99,0009.20,0008.75
2022-09-12 22:49:00,,0826.7,5.01,0.00,29.6,27.0,00.0,38.2,31.3,08.9,0002.7,0013.25,0009.17,0008.73
2022-09-12 22:50:00,,0826.7,5.00,0.00,29.6,27.3,00.0,38.2,31.3,08.5,0002.6,0012.63,0009.17,0008.71
2022-09-12 22:51:00,,0826.7,5.00,0.00,29.6,27.6,00.0,38.2,31.3,09.0,0002.6,0012.68,0009.16,0008.70
2022-09-12 22:52:00,,0826.6,5.00,0.00,29.6,27.9,00.0,38.2,31.4,08.2,0002.6,0012.78,0009.15,0008.67
2022-09-12 22:53:00,,0826.7,5.00,0.00,29.6,28.1,00.0,38.3,31.5,08.4,0002.8,0012.83,0009.13,0008.65
2022-09-12 22:54:00,,0826.7,5.00,0.00,29.7,28.3,00.0,38.3,31.6,08.1,0002.6,0012.99,0009.16,0008.67
2022-09-12 22:55:00,,0826.6,5.01,0.00,29.7,28.5,00.0,38.3,31.7,08.4,0002.4,0013.08,0009.18,0008.68
2022-09-12 22:56:00,,0826.6,5.01,0.00,29.8,28.4,00.0,38.3,31.7,08.4,0001.9,0012.90,0009.15,0008.66
2022-09-12 22:57:00,,0826.7,4.98,0.00,29.8,27.2,00.0,38.3,31.6,08.9,0002.2,0013.20,0009.11,0008.63
2022-09-12 22:58:00,,0826.6,5.00,0.00,29.7,26.5,00.0,38.3,31.5,08.9,0002.5,0013.52,0009.12,0008.61
2022-09-12 22:59:00,,0826.7,5.00,0.00,29.7,26.7,00.0,38.2,31.5,09.1,0002.3,0013.80,0009.15,0008.62
